SCP
0 0 0 0 0 0 0 0 0 0 0 0 0 0 0 0 0 0 0 0 0 0 0 0 0 0 0 0 0 0 0 0 0 0 0 0 0 0 0 0 0 0 0 0
0 0 0 0 0 0 0 0 0 0 0 0 0 0 0 0 0 0 0 0 0 0 0 0 0 0 0 0 0 0 0 0 0 0 0 0 0 0 0 0 0 0 0 0
0 0 0 0 0 0 0 0 0 0 0 0 0 0 0 0 0 0 0 0 0 0 0 0 0 0 0 0 0 0 0 0 0 0 0 0 0 0 0 0 0 0 0 0
0 0 0 0 0 0 0 0 0 0 0 0 0 0 0 0 0 0 0 0 0 0 0 0 0 0 0 0 0 0 0 0 0 0 0 0 0 0 0 0 0 0 0 0
0 0 0 0 0 0 0 0 0 0 0 0 0 0 0 0 0 0 0 0 0 0 0 0 0 0 0 0 0 0 0 0 0 0 0 0 0 0 0 0 0 0 0 0
0 0 0 0 0 0 0 0 0 0 0 0 0 0 0 0 0 0 0 0 0 0 0 0 0 0 0 0 0 0 0 0 0 0 0 0 0 0 0 0 0 0 0 0
0 0 0 0 0 0 0 0 0 0 0 0 0 0 0 0 0 0 0 0 0 0 0 0 0 0 0 0 0 0 0 0 0 0 0 0 0 0 0 0 0 0 0 0
0 0 0 0 0 0 0 0 0 0 0 0 0 0 0 0 0 0 0 0 0 0 0 0 0 0 0 0 0 0 0 0 0 0 0 0 0 0 0 0 0 0 0 0
0 0 0 0 0 0 0 0 0 0 0 0 0 0 0 0 0 0 0 0 0 0 0 0 0 0 0 0 0 0 0 0 0 0 0 0 0 0 0 0 0 0 0 0
0 0 0 0 0 0 0 0 0 0 0 0 0 0 0 0 0 0 0 0 0 0 0 0 0 0 0 0 0 0 0 0 0 0 0 0 0 0 0 0 0 0 0 0
0 0 0 0 0 0 0 0 0 0 0 0 0 0 0 0 0 0 0 0 0 0 0 0 0 0 0 0 0 0 0 0 0 0 0 0 0 0 0 0 0 0 0 0
0 0 0 0 0 0 0 0 0 0 0 0 0 0 0 0 0 0 0 0 0 0 0 0 0 0 0 0 0 0 0 0 0 0 0 0 0 0 0 0 0 0 0 0
0 0 0 0 0 0 0 0 0 0 0 0 0 0 0 0 0 0 0 0 0 0 0 0 0 0 0 0 0 0 0 0 0 0 0 0 0 0 0 0 0 0 0 0
0 0 0 0 0 0 0 0 0 0 0 0 0 0 0 0 0 0 0 0 0 0 0 0 0 0 0 0 0 0 0 0 0 0 0 0 0 0 0 0 0 0 0 0
0 0 0 0 0 0 0 0 0 0 0 0 0 0 0 0 0 0 0 0 0 0 0 0 0 0 0 0 0 0 0 0 0 0 0 0 0 0 0 0 0 0 0 0
0 0 0 0 0 0 0 0 0 0 0 0 0 0 0 0 0 0 0 0 0 0 0 0 0 0 0 0 0 0 0 0 0 0 0 0 0 0 0 0 0 0 0 0
0 0 0 0 0 0 0 0 0 0 0 0 0 0 0 0 0 0 0 0 0 0 0 0 0 0 0 0 0 0 0 0 0 0 0 0 0 0 0 0 0 0 0 0
0 0 0 0 0 0 0 0 0 0 0 0 0 0 0 0 0 0 0 0 0 0 0 0 0 0 0 0 0 0 0 0 0 0 0 0 0 0 0 0 0 0 0 0
0 0 0 0 0 0 0 0 0 0 0 0 0 0 0 0 0 0 0 0 0 0 0 0 0 0 0 0 0 0 0 0 0 0 0 0 0 0 0 0 0 0 0 0
0 0 0 0 0 0 0 0 0 0 0 0 0 0 0 0 0 0 0 0 0 0 0 0 0 0 0 0 0 0 0 0 0 0 0 0 0 0 0 0 0 0 0 0
0 0 0 0 0 0 0 0 0 0 0 0 0 0 0 0 0 0 0 0 0 0 0 0 0 0 0 0 0 0 0 0 0 0 0 0 0 0 0 0 0 0 0 0
0 0 0 0 0 0 0 0 0 0 0 0 0 0 0 0 0 0 0 0 0 0 0 0 0 0 0 0 0 0 0 0 0 0 0 0 0 0 0 0 0 0 0 0
0 0 0 0 0 0 0 0 0 0 0 0 0 0 0 0 0 0 0 0 0 0 0 0 0 0 0 0 0 0 0 0 0 0 0 0 0 0 0 0 0 0 0 0
0 0 0 0 0 0 0 0 0 0 0 0 0 0 0 0 0 0 0 0 0 0 0 0 0 0 0 0 0 0 0 0 0 0 0 0 0 0 0 0 0 0 0 0
0 0 0 0 0 0 0 0 0 0 0 0 0 0 0 0 0 0 0 0 0 0 0 0 0 0 0 0 0 0 0 0 0 0 0 0 0 0 0 0 0 0 0 0
0 0 0 0 0 0 0 0 0 0 0 0 0 0 0 0 0 0 0 0 0 0 0 0 0 0 0 0 0 0 0 0 0 0 0 0 0 0 0 0 0 0 0 0
0 0 0 0 0 0 0 0 0 0 0 0 0 0 0 0 0 0 0 0 0 0 0 0 0 0 0 0 0 0 0 0 0 0 0 0 0 0 0 0 0 0 0 0
Wind_Speed
7 6 4 6 7 7 9 8 10 11 8 8 11 11 10 8 6 5 3 1 2 3 4 5 6 6 7 8 8 9 9 10 11 11 11 11 11 11 11 12 14 14 15 17
5 3 5 6 9 8 8 7 10 10 13 3 6 7 7 7 6 5 3 1 2 4 5 6 6 7 7 8 8 8 8 10 11 11 11 11 11 11 12 12 13 14 15 16
6 7 7 9 6 8 7 9 9 10 8 7 6 9 10 8 6 5 3 2 2 3 4 5 6 6 7 8 8 8 8 9 10 10 11 11 12 12 12 11 11 12 13 15
3 7 5 7 1 5 7 9 9 8 5 10 7 6 5 6 7 6 4 2 0 2 3 4 5 6 6 7 7 7 8 9 9 10 10 11 10 10 10 8 9 9 11 13
1 3 12 10 4 5 5 10 8 8 7 7 9 6 2 4 6 6 5 3 2 1 2 4 5 6 6 7 7 7 8 9 9 9 10 10 10 10 8 8 7 8 9 11
3 2 8 7 2 2 3 9 6 9 11 11 11 4 6 9 7 6 5 3 2 0 2 3 5 5 6 7 7 8 9 9 9 9 10 9 10 8 7 7 8 10 10 10
5 6 14 7 4 5 3 9 4 10 11 14 11 6 7 11 7 6 5 4 3 1 2 3 4 5 5 6 7 8 8 8 9 9 9 8 9 7 7 8 8 8 9 9
5 5 14 6 9 11 12 2 6 8 8 9 7 9 11 10 8 7 6 4 3 2 2 3 4 4 5 6 7 7 7 8 8 8 8 9 9 8 7 7 6 6 7 7
13 14 7 11 12 8 6 7 7 8 7 10 10 9 10 9 8 7 6 4 3 2 2 3 4 4 4 6 6 7 7 7 7 8 7 8 7 7 6 6 4 5 6 6
8 15 10 11 9 5 7 7 7 8 10 11 10 10 10 10 8 6 5 4 3 2 2 3 4 4 4 6 6 6 6 7 6 6 7 7 6 6 5 6 5 4 5 6
10 12 8 8 11 9 7 7 8 8 8 11 13 10 10 9 9 7 6 4 4 3 1 2 3 4 5 6 5 5 6 6 6 7 6 6 6 6 7 5 8 7 4 5
13 12 9 8 7 12 12 11 12 11 9 8 10 12 11 9 8 7 6 5 4 3 1 1 2 3 5 6 5 5 5 6 5 5 5 6 6 7 12 13 16 16 15 12
9 4 6 3 5 11 12 13 13 12 13 10 8 10 12 8 8 7 6 5 5 4 2 1 1 3 5 6 6 5 5 6 4 5 5 6 7 7 9 11 15 15 16 16
7 4 4 6 7 9 9 11 9 8 8 10 10 9 10 8 7 8 7 6 5 4 3 2 1 3 5 5 6 5 5 7 6 4 5 5 6 7 7 8 10 9 11 15
10 11 7 5 8 9 10 11 11 10 9 9 8 10 11 10 9 8 6 6 5 4 4 2 2 3 4 5 5 5 5 5 4 4 4 5 6 6 7 8 8 9 8 9
5 6 6 8 12 13 12 12 14 14 13 11 10 11 10 9 8 7 6 6 6 5 4 3 3 3 4 4 5 4 4 9 8 4 5 5 5 6 7 8 8 8 9 9
10 10 10 10 14 14 16 15 16 16 15 14 13 11 10 8 7 7 7 6 5 5 4 4 4 3 4 4 4 3 4 5 9 6 4 5 5 5 6 7 8 9 9 12
17 14 15 14 17 17 16 13 13 15 15 14 12 12 12 12 12 10 8 6 5 4 5 5 4 4 4 4 3 2 3 3 4 4 4 5 5 4 5 6 8 9 8 10
14 12 13 13 16 17 17 16 15 14 13 14 16 15 13 11 9 7 7 7 6 5 5 5 6 3 3 4 3 1 3 4 4 4 4 7 6 5 5 6 8 8 8 9
12 11 12 12 13 14 15 14 14 13 13 15 14 12 11 10 8 8 8 7 6 5 5 6 5 4 3 4 2 1 2 3 4 4 4 4 5 5 5 7 8 8 8 9
13 13 13 14 13 13 14 16 17 16 15 16 16 16 14 11 10 9 7 6 6 7 6 8 5 4 3 3 1 1 1 2 3 3 4 4 5 6 6 7 8 9 9 10
13 14 15 14 14 13 13 14 15 16 16 15 14 12 12 11 11 8 6 5 5 11 7 4 4 6 6 4 3 1 0 1 2 3 3 4 4 5 6 7 8 8 9 9
11 12 14 15 15 13 13 13 15 16 17 18 17 17 16 13 11 10 8 7 6 11 8 5 8 10 7 4 3 2 1 1 2 2 3 3 4 5 6 7 7 8 8 9
13 13 13 12 13 14 16 15 14 12 13 13 14 14 14 11 9 7 3 11 16 14 7 9 13 11 8 4 4 3 2 2 2 2 2 3 3 4 5 6 6 7 8 10
13 14 15 16 16 13 13 13 12 11 11 9 10 11 10 9 8 9 7 8 15 14 7 10 14 12 6 4 4 4 3 3 3 2 2 3 3 4 5 5 6 7 8 8
13 13 13 12 11 10 11 12 12 11 12 11 11 10 9 7 6 8 8 9 11 13 8 6 5 7 5 5 5 5 4 3 2 2 2 3 3 4 5 6 8 7 8 8
9 9 8 8 8 10 11 12 13 14 14 14 13 12 11 10 9 9 10 9 9 8 7 6 6 5 5 5 5 5 4 4 3 3 3 3 3 3 4 6 6 7 8 9
Wind_Direction
261 273 267 250 233 201 196 201 217 247 247 238 202 186 179 178 174 176 182 132 24 1 345 340 338 333 329 325 328 333 332 334 333 330 327 326 325 325 328 332 335 331 332 332
294 326 311 273 249 223 222 220 238 263 271 243 136 134 155 172 175 182 176 94 24 358 346 340 333 327 326 327 329 331 330 332 332 334 333 332 331 336 338 338 337 338 339 339
291 317 339 295 249 195 213 215 205 228 236 147 154 173 178 178 180 181 158 106 24 346 330 323 322 323 325 325 325 330 329 330 334 334 334 334 338 342 340 338 338 341 341 345
317 356 292 252 189 196 224 245 219 229 195 175 161 143 142 159 173 173 152 135 347 324 318 315 321 325 323 325 328 330 331 332 334 334 332 332 337 340 336 333 338 338 340 347
92 304 281 291 237 206 222 276 220 200 162 128 114 100 184 193 173 166 153 152 178 254 288 318 331 330 331 332 332 335 339 338 335 334 334 335 340 338 334 333 336 339 345 348
137 225 257 254 162 133 75 280 230 170 159 154 151 178 220 176 163 151 145 142 148 276 339 346 337 337 342 338 339 343 342 338 336 339 336 336 339 335 333 333 343 347 348 349
182 235 265 251 153 131 189 257 182 164 163 166 186 190 152 147 150 149 145 144 133 87 25 346 336 348 350 342 341 335 335 336 340 341 335 341 337 332 335 340 340 340 345 345
162 213 258 193 148 191 217 162 156 156 155 154 142 123 136 146 149 149 147 146 137 97 30 351 351 359 350 339 324 326 334 339 339 338 340 349 333 331 333 335 332 334 340 345
192 220 237 177 200 209 161 168 171 158 151 138 140 151 154 153 154 154 157 161 149 114 52 4 355 360 345 321 319 328 335 335 331 334 336 337 329 329 333 336 332 339 342 343
245 261 247 222 233 209 185 179 164 150 149 152 152 156 155 157 159 160 164 165 152 120 68 6 345 346 324 312 320 331 332 328 328 332 335 332 336 340 336 335 336 336 336 331
253 269 288 256 221 197 173 148 138 138 151 156 149 154 160 160 163 166 168 164 152 136 105 341 334 335 324 317 323 332 328 324 327 336 329 329 333 335 340 326 350 350 323 320
231 226 205 239 211 172 162 164 158 148 145 152 157 159 158 161 162 163 166 163 156 154 161 309 328 328 320 315 319 329 332 327 317 324 331 333 327 329 344 352 353 353 350 349
224 208 198 245 174 171 170 164 162 159 157 157 156 157 157 156 162 161 165 169 171 173 187 231 315 320 315 311 314 324 322 315 312 331 330 331 332 332 331 336 344 348 349 345
217 161 211 196 184 170 154 148 143 134 140 149 151 155 155 147 154 167 177 181 177 180 189 192 285 306 303 305 311 320 321 320 330 315 317 320 323 324 326 328 330 329 335 337
218 202 206 164 139 137 137 138 142 146 145 148 153 159 161 162 171 179 179 178 176 179 180 196 261 290 297 304 313 318 322 312 312 314 317 318 322 328 331 330 329 326 325 327
184 164 149 150 160 159 156 161 167 169 165 164 168 174 172 166 164 166 175 179 177 186 193 205 243 270 292 303 313 314 314 333 342 333 325 327 326 333 338 337 336 335 334 328
162 184 180 182 180 181 184 182 178 173 170 173 177 169 158 153 161 181 192 190 186 192 199 209 229 266 288 298 304 305 310 320 341 338 322 319 323 332 334 337 339 338 337 338
207 197 182 182 183 185 188 182 174 172 175 174 160 161 169 177 186 191 184 172 178 203 221 213 220 251 270 287 292 296 307 307 312 314 318 326 342 333 331 335 335 334 337 342
209 195 185 181 179 180 181 180 178 173 163 158 166 177 183 186 182 171 162 170 185 205 213 199 219 226 267 287 322 282 313 315 320 322 320 340 347 331 336 336 334 331 336 344
200 187 179 176 171 172 176 174 167 164 165 164 167 171 179 184 175 167 171 192 202 193 179 192 210 218 241 273 307 233 315 320 326 327 331 336 334 335 339 340 337 334 340 344
190 179 175 173 171 171 170 167 166 168 168 170 174 180 183 179 173 169 176 204 216 193 193 209 198 198 230 236 149 145 321 325 328 326 332 334 333 336 340 342 341 340 343 342
182 178 176 170 168 170 168 167 168 166 167 174 178 173 170 172 177 183 201 202 182 179 180 192 191 213 223 179 145 152 277 321 319 319 326 329 331 333 335 337 338 339 338 337
175 174 172 171 170 164 160 167 169 169 173 178 179 179 181 180 179 183 200 201 182 188 179 184 201 211 197 152 155 162 186 278 300 310 318 319 321 323 325 328 330 331 329 333
168 167 165 157 151 156 170 175 172 174 178 181 182 180 175 173 184 197 188 176 182 188 185 194 202 203 178 158 166 176 194 232 265 281 302 308 310 313 315 319 323 324 325 329
162 158 156 161 170 177 172 163 161 163 168 176 179 179 180 178 178 179 176 173 180 180 178 198 200 196 174 171 179 187 200 224 232 230 274 297 304 310 313 318 321 320 320 324
167 171 175 178 173 163 161 165 172 174 176 179 183 183 181 173 160 160 168 174 184 182 178 188 195 189 175 182 187 192 200 220 249 254 262 279 293 302 306 312 313 312 314 318
150 154 153 158 166 167 169 174 176 178 181 181 179 179 177 175 173 173 174 176 183 182 178 183 185 184 186 189 191 196 201 208 216 225 241 258 274 285 295 302 304 305 308 313